Regional Weather Roundup
Issued by NWS Cleveland, OH

Home | Current Version | Previous Version | Text Only | Print | Product List | Glossary On
Versions: 1 2 3 4 5 6 7 8 9 10 11 12 13 14 15 16 17 18 19 20 21 22 23 24 25 26 27 28 29 30 31 32 33 34 35 36 37 38 39 40 41 42 43 44 45 46 47 48 49 50
000
ASUS41 KCLE 280810
RWRCLE
OHIO REGIONAL WEATHER ROUNDUP
NATIONAL WEATHER SERVICE WILMINGTON, OH
400 AM EDT MON JUL 28 2014

NOTE: "FAIR" INDICATES FEW OR NO CLOUDS BELOW 12,000 FEET WITH NO
SIGNIFICANT WEATHER AND/OR OBSTRUCTIONS TO VISIBILITY.

OHZ001>008-015>018-024>027-034-035-043-044-280900-
   NORTHWEST OHIO

CITY           SKY/WX    TMP DP  RH WIND       PRES   REMARKS
DEFIANCE       PTCLDY    62  58  86 VRB5      29.78R
FINDLAY        CLOUDY    63  59  87 NW8       29.74R
TOLEDO EXPRESS CLEAR     60  58  92 W8        29.74S
TOLEDO METCALF CLEAR     62  57  83 NW12      29.74S
LIMA           CLOUDY    62  59  90 NW12      29.78R
$$

OHZ009>014-019>023-028>033-038-089-280900-
   NORTHEAST OHIO

CITY           SKY/WX    TMP DP  RH WIND       PRES   REMARKS
CLE-HOPKINS    CLOUDY    65  60  84 W8        29.71S
CLE-LAKEFRONT  MOCLDY    66  60  81 NW20G25   29.66S
CUY CO. ARPT   NOT AVBL
LORAIN-ELYRIA  CLOUDY    66  60  81 NW10      29.71R
ASHTABULA      TSTM      61  59  93 W7        29.65S
AKRON-CANTON   CLOUDY    65  60  84 NW12      29.69R
WOOSTER        CLEAR     62  59  90 NW9       29.72R
MANSFIELD      CLOUDY    61  61 100 W7        29.74R
YOUNGSTOWN     LGT RAIN  61  60  97 W8        29.66R
$$

OHZ042-051>053-060>062-070>072-077>081-280900-
  SOUTHWEST OHIO

CITY           SKY/WX    TMP DP  RH WIND       PRES   REMARKS
CINC-COVINGTON PTCLDY    64  58  80 W10       29.84R
CINC-LUNKEN    CLEAR     65  60  84 S3        29.83R
HAMILTON       CLEAR     63  59  87 W3        29.82S
DAYTON         PTCLDY    64  57  78 NW12      29.81R
WRIGHT-PAT AFB CLEAR     64  58  79 W9        29.79R
DAYTON GENERAL CLEAR     64  58  80 W8        29.80R
WILMINGTON     CLEAR     63  56  78 W8        29.80R
$$

OHZ036-037-039>041-045>050-054>059-063>069-073>076-082>088-280900-
  CENTRAL AND SOUTHEAST OHIO

CITY           SKY/WX    TMP DP  RH WIND       PRES   REMARKS
COLUMBUS       CLEAR     65  60  84 W9        29.74R
OSU AIRPORT    CLEAR     62  59  90 W8        29.75R
BOLTON FIELD   CLEAR     63  59  89 W7        29.77R
RICKENBACK AFB CLEAR     65  57  77 W8        29.76R
NEWARK         PTCLDY    65  61  87 W8        29.73R
MARION         PTCLDY    62  59  90 W10       29.74R
LANCASTER      CLEAR     64  61  90 W6        29.75S
ZANESVILLE     MOCLDY    64  61  90 W6        29.72R
NEW PHILLY     CLOUDY    64  62  93 W7        29.71R
$$



USA.gov is the U.S. government's official web portal to all federal, state and local government web resources and services.